Tracking 29892 objects as of 21-Nov-2024
HD Live streaming from Space Station
objects crossing your sky now

STARLINK-30068

Track STARLINK-30068 now!
10-day predictions
STARLINK-30068 is classified as:


NORAD ID: 56698
Int'l Code: 2023-067L
Perigee: 565.4 km
Apogee: 567.0 km
Inclination: 43.0 °
Period: 95.8 minutes
Semi major axis: 6937 km
RCS: Unknown
Launch date: May 19, 2023
Source: United States (US)
Launch site: AIR FORCE EASTERN TEST RANGE (AFETR)
Your satellite tracking list
Your tracking list is empty




NASA's NSSDC Master Catalog

Two Line Element Set (TLE):
1 56698U 23067L   24325.38721750  .00002394  00000-0  19218-3 0  9993
2 56698  43.0011 318.6082 0001129 247.5556 112.5166 15.02547327 84202
Source of the keplerian elements: AFSPC